Content
SEND FEEDBACK

Daily
Averages
Monthly
Summary
United States of America

NASHVILLE, INDIANA


Home > North America > United States > Indiana
Elevation: 246 meters     Latitude: 39 12N     Longitude: 086 20W

WEATHER
 
SELECT A DAY
Number of Records: 197,120;   Date Range: 1/1/95 - 8/14/14
 
SHARE

PRINT THIS DATA

[ ← Previous Day ]
WEATHER ALMANAC - 31 JANUARY, 2013
[ Next Day → ]
[ °F ]   °C
Weather ElementAverageHighLow
Temperature-5 °C-1.1 °C (3:53 pm)-12.2 °C (11:53 pm)
Dewpoint-10.2 °C-5.6 °C (5:53 pm)-18.9 °C (11:53 pm)
Humidity67.9 %86 % (6:10 pm)54 % (3:53 pm)
Barometer1014.2 hPa1022.4 hPa (11:53 pm)1006.8 hPa (1:07 am)
Wind Speed23.2 km/h35.2 km/h (1:07 am)
Wind Gust57.5 km/h (11:53 pm)
Weather ElementAverage
Visibility9.2 km
Wind DirectionWNW (283.8 °)

Weather ElementTotal
Precipitation0.51 mm
Heating Degree Days25 (Base 18.3)
Averaged from 39 records on 31 January, 2013
WEATHER CONDITIONS BREAKOUT
WIND DIRECTION BREAKOUT
WEATHER BY HOUR - 31 JANUARY, 2013
[ °F ]   °C
Local TimeTemperatureDewpointHumidityBarometerVisibilityWind DirectionWind SpeedGust SpeedPrecipitationEventsConditions
1:07 AM-3 °C-9 °C64 %1006.8 hPa16.1 kmWNW (290°)35.2 km/h51.8 km/hOvercast
1:53 AM-3.3 °C-8.9 °C66 %1008.1 hPa16.1 kmWNW (290°)22.2 km/h38.9 km/h0 mmOvercast
2:12 AM-3 °C-8 °C69 %1007.5 hPa9.7 kmWest (280°)18.5 km/h37 km/h0 mmSnowLight Snow
2:53 AM-3.3 °C-8.9 °C66 %1009.1 hPa14.5 kmWest (270°)16.7 km/h48.1 km/h0 mmOvercast
3:11 AM-3 °C-9 °C64 %1008.8 hPa9.7 kmWest (280°)27.8 km/h46.3 km/h0 mmSnowLight Snow
3:53 AM-3.9 °C-9.4 °C66 %1009.8 hPa11.3 kmWest (260°)29.6 km/h44.4 km/h0 mmSnowLight Snow
4:53 AM-3.9 °C-10.6 °C60 %1010.2 hPa16.1 kmWest (270°)24.1 km/h50.1 km/h0 mmOvercast
5:53 AM-4.4 °C-12.2 °C55 %1011.2 hPa16.1 kmWNW (290°)29.6 km/h50.1 km/hOvercast
7:53 AM-4.4 °C-11.1 °C60 %1012.5 hPa16.1 kmWest (260°)18.5 km/hOvercast
8:53 AM-3.9 °C-10.6 °C60 %1013.2 hPa16.1 kmWSW (240°)14.8 km/h29.6 km/hOvercast
9:53 AM-3.3 °C-9.4 °C63 %1013.9 hPa16.1 kmWSW (250°)18.5 km/hOvercast
10:53 AM-3.3 °C-10.6 °C58 %1014.6 hPa12.9 kmWest (260°)24.1 km/h38.9 km/h0 mmSnowLight Snow
11:53 AM-2.8 °C-9.4 °C61 %1014.6 hPa12.9 kmWest (270°)25.9 km/h42.6 km/h0 mmOvercast
12:53 PM-1.7 °C-7.8 °C64 %1014.6 hPa12.9 kmWest (260°)24.1 km/h44.4 km/h0 mmSnowLight Snow
1:53 PM-2.2 °C-8.9 °C61 %1014.2 hPa12.9 kmWSW (240°)27.8 km/h46.3 km/h0 mmSnowLight Snow
2:53 PM-1.7 °C-8.3 °C61 %1013.9 hPa16.1 kmWest (260°)29.6 km/h40.7 km/h0 mmOvercast
3:53 PM-1.1 °C-9.4 °C54 %1013.5 hPa16.1 kmWest (260°)22.2 km/h35.2 km/h0 mmOvercast
4:53 PM-1.7 °C-8.9 °C58 %1013.5 hPa16.1 kmWSW (250°)20.4 km/h42.6 km/hOvercast
5:36 PM-2 °C-7 °C69 %1013.2 hPa4 kmWest (260°)33.3 km/h42.6 km/h0 mmSnowLight Snow
5:42 PM-3 °C-7 °C74 %1013.2 hPa1.3 kmWest (280°)18.5 km/h42.6 km/h0 mmSnowLight Snow
5:53 PM-3.3 °C-5.6 °C84 %1014.2 hPa0.8 kmWNW (290°)18.5 km/h0 mmFog-SnowLight Snow
6:10 PM-4 °C-6 °C86 %1013.5 hPa0.8 kmWNW (290°)27.8 km/h38.9 km/h0 mmFog-SnowSnow
6:31 PM-4 °C-6 °C86 %1013.5 hPa1.6 kmWest (280°)16.7 km/h0 mmSnowLight Snow
6:37 PM-4 °C-6 °C86 %1013.9 hPa0.8 kmWNW (300°)18.5 km/h29.6 km/h0 mmFog-SnowSnow
6:49 PM-4 °C-7 °C80 %1013.9 hPa0.3 kmNW (310°)14.8 km/h27.8 km/h0.25 mmFog-SnowSnow
6:53 PM-4.4 °C-6.7 °C84 %1014.9 hPa0.8 kmNW (320°)14.8 km/h0.25 mmFog-SnowSnow
7:12 PM-5 °C-8 °C80 %1014.2 hPa2.9 kmWNW (300°)22.2 km/h42.6 km/h0 mmSnowLight Snow
7:19 PM-5 °C-8 °C80 %1014.6 hPa3.2 kmWNW (300°)25.9 km/h40.7 km/h0 mmSnowLight Snow
7:38 PM-6 °C-9 °C80 %1015.2 hPa2.4 kmNW (310°)20.4 km/h40.7 km/h0 mmSnowLight Snow
7:53 PM-6.7 °C-10 °C78 %1016.6 hPa1.9 kmNW (320°)16.7 km/h40.7 km/h0 mmSnowLight Snow
8:36 PM-8 °C-13 °C68 %1016.6 hPa4.8 kmNW (310°)18.5 km/h42.6 km/h0 mmSnowLight Snow
8:48 PM-8 °C-14 °C63 %1016.9 hPa6.4 kmWNW (300°)27.8 km/h48.1 km/h0 mmOvercast
8:53 PM-8.3 °C-14.4 °C62 %1017.9 hPa6.4 kmNW (310°)25.9 km/h51.8 km/h0 mmSnowLight Snow
9:08 PM-9 °C-14 °C68 %1016.9 hPa9.7 kmNW (310°)16.7 km/h40.7 km/h0 mmSnowLight Snow
9:53 PM-10.6 °C-16.1 °C65 %1019.3 hPa11.3 kmWNW (300°)27.8 km/h44.4 km/h0 mmMostly Cloudy
10:00 PM-11 °C-17 °C62 %1018.3 hPa11.3 kmWNW (290°)24.1 km/h44.4 km/hScattered Clouds
10:25 PM-11 °C-17 °C62 %1018.6 hPa12.9 kmWNW (300°)25.9 km/h38.9 km/hMostly Cloudy
10:53 PM-11.7 °C-17.2 °C64 %1021 hPa9.7 kmNW (310°)25.9 km/h44.4 km/h0 mmHaze
11:53 PM-12.2 °C-18.9 °C58 %1022.4 hPa6.4 kmWNW (300°)29.6 km/h57.5 km/h0 mmPartly Cloudy
Hourly data recorded from KBMG, located 0 kilometers away from Nashville, Indiana







STORIES FROM OUR PARTNERS